Hourly Data Report for July 04, 2021

WINNIPEG THE FORKS
MANITOBA
Current Station Operator: ECCC - MSC

49°53'18.008" N
97°07'46.007" W
230.00 m
5023262
71579
XWN

Download Data

Hourly Data (July 2021)
Hourly Data Report for July 4, 2021
TIME
LST
Temp Definition
°C
Dew Point Definition
°C
Rel Hum Definition
%
Precip. Amount Definition
mm

Wind Dir Definition
10's deg

Wind Spd Definition
km/h
Visibility Definition
km
Stn Press Definition
kPa
Hmdx Definition


Wind Chill Definition


Weather Definition


00:00 22.3 18.6 80 0.0 22 2   97.72 29   LegendNANA
01:00 21.9 18.7 82 0.0 18 1   97.67 28   LegendNANA
02:00 21.4 18.6 84 0.0 20 4   97.62 28   LegendNANA
03:00 20.9 18.5 86 0.0 0 1   97.58 27   LegendNANA
04:00 20.9 18.5 86 0.0 12 1   97.62 27   LegendNANA
05:00 21.1 18.7 86 0.0 3 2   97.63 28   LegendNANA
06:00 21.2 18.7 86 0.0 8 4   97.61 28   LegendNANA
07:00 21.0 19.3 90 0.5 16 2   97.60 28   LegendNANA
08:00 22.9 19.6 82 0.0 19 6   97.62 30   LegendNANA
09:00 24.4 19.4 74 0.0 26 8   97.68 31   LegendNANA
10:00 24.5 19.1 72 0.0 27 7   97.74 31   LegendNANA
11:00 26.4 18.9 63 0.0 29 4   97.73 33   LegendNANA
12:00 27.8 18.3 56 0.0 29 4   97.77 34   LegendNANA
13:00 30.1 19.7 54 0.0 1 7   97.77 37   LegendNANA
14:00 31.8 17.0 41 0.0 30 8   97.76 37   LegendNANA
15:00 31.9 16.3 39 0.0 30 10   97.79 37   LegendNANA
16:00 32.1 16.6 39 0.0 29 10   97.83 37   LegendNANA
17:00 31.4 15.1 37 0.0 32 13   97.87 35   LegendNANA
18:00 31.3 12.3 31 0.0 30 6   97.94 34   LegendNANA
19:00 30.0 10.3 29 0.0 33 13   98.01 31   LegendNANA
20:00 28.2 13.7 41 0.0 33 8   98.05 31   LegendNANA
21:00 27.0 14.6 46 0.0 30 6   98.10 31   LegendNANA
22:00 26.1 14.8 50 0.0 33 8   98.14 30   LegendNANA
23:00 24.9 14.8 53 0.0 31 3   98.19 29   LegendNANA

Notes on Data Quality.

Legend

  • E = Estimated
  • M = Missing
  • NA = Not Available*
  • [empty] = Indicates an unobserved value
Date modified: